Weather in Sahaidak

Ukraine / Poltava Region     49°43′42″N   33°58′59″E
temp.,
°C
wind,
m/s
gust,
m/s
humid.,
%
clouds,
%
prec.,
mm/h
press.,
hPa
HPBL,
m
23 october, sat
sat2300:00+10sw225757 0.0 101411
03:00+11ssw365335 0.0 1014129
06:00+9wsw3667100 0.0 101386
09:00+11w51160100 0.0 1015459
12:00+15w7123473 0.0 10151469
15:00+14w810365 0.0 10151738
18:00+10wnw375015 0.0 1017140
21:00+7nw48552 0.0 1019153
24 october, sun
sun2400:00+5nw38625 0.0 1021165
03:00+4wnw227011 0.0 102125
06:00+3wsw357672 0.0 1021114
09:00+5wnw47716 0.0 1022270
12:00+9wnw675076 0.0 10221514
15:00+9nw7956100 0.3 10221416
18:00+6nnw71067100 0.1 10241249
21:00+5nw61071100 0.2 10261137
25 october, mon
mon2500:00+4nnw5106257 0.1 1027526
03:00+1nnw410785 0.1 1029340
06:00−1nnw49825 0.0 1030241
09:00+1n48725 0.0 1032346
12:00+5n45475 0.0 1033947
15:00+7n34380 0.0 10321148
18:00+3n22490 0.0 103317
21:00+1nne12571 0.0 103410
26 october, tue
tue2600:00+1se11602 0.0 103410
03:000s22620 0.0 103510
06:00−1s22652 0.0 103410
09:00+2s34535 0.0 1034143
12:00+7s45345 0.0 1033694
15:00+10ssw45260 0.0 1031912
18:00+5s33355 0.0 103025
21:00+3s35390 0.0 103067
27 october, wed
wed2700:00+2s37430 0.0 103096
03:00+1s364552 0.0 102983
06:000s3448100 0.0 102851
09:00+2ssw3750100 0.0 1028187
12:00+8ssw4632100 0.0 1026616
15:00+9sw4630100 0.0 1024775
18:00+6sw3546100 0.0 102496
21:00+5wsw33573 0.0 102435